SCP
2 2 2 2 2 2 1 1 1 1 1 1 1 1 1 1 1 1 1 0 0 0 0 0 0 0 0 0 0 0 0 0 0 1 1 1 0 0
1 1 1 2 2 1 1 1 1 1 1 1 1 1 1 1 1 1 1 1 0 0 0 0 0 0 0 0 0 0 0 0 0 1 1 0 0 0
1 1 1 1 1 1 1 1 1 1 1 1 1 1 2 2 1 1 1 1 1 0 0 0 0 0 0 0 0 0 0 0 0 0 0 0 0 0
1 1 1 1 1 1 1 1 1 1 1 1 1 1 2 2 2 2 1 1 1 0 0 0 0 0 0 0 0 0 0 0 0 0 0 0 0 0
1 1 1 1 1 1 1 1 1 1 1 1 1 1 1 2 2 2 2 2 1 1 0 0 0 0 0 0 0 0 0 0 0 0 0 0 0 0
1 1 1 1 1 1 1 1 1 1 1 1 1 1 1 1 2 2 2 2 2 1 1 1 0 0 0 0 0 0 0 0 0 0 0 0 0 0
1 1 1 1 1 1 1 1 1 1 1 1 1 2 2 2 1 1 1 2 2 2 2 2 1 1 1 0 0 0 0 0 0 0 0 0 0 0
1 1 1 1 1 1 1 1 1 1 1 1 1 1 2 2 1 1 1 1 2 2 2 2 1 2 1 1 0 0 0 0 0 0 0 0 0 0
2 1 1 1 1 1 1 1 1 1 1 1 1 1 2 2 2 1 1 1 1 1 1 1 1 1 1 1 1 0 0 0 0 0 0 0 0 0
2 2 1 1 1 1 1 1 1 1 1 1 1 1 1 2 2 2 2 1 1 1 1 1 1 1 1 1 0 0 0 0 0 0 0 0 0 0
2 2 1 1 1 1 1 1 1 1 1 1 1 1 1 1 2 2 2 1 1 1 1 1 1 1 1 1 1 0 0 0 0 0 0 0 0 0
2 2 1 1 0 0 1 1 1 1 2 1 1 1 1 1 2 2 2 2 1 1 1 1 1 1 1 1 1 1 1 0 0 0 0 0 0 0
2 2 1 0 0 0 0 1 1 1 2 2 2 2 2 3 2 2 2 2 2 1 1 1 1 1 2 2 2 1 1 1 1 1 0 0 0 0
2 1 1 0 0 0 0 0 0 1 2 2 2 2 3 3 3 2 2 2 2 1 1 1 1 1 2 2 2 2 2 3 3 2 1 1 0 0
2 1 1 0 0 0 0 0 0 1 2 2 2 2 3 3 3 2 2 2 2 1 1 1 1 1 1 2 2 2 3 3 4 4 3 2 1 1
2 1 0 0 0 0 0 0 0 1 1 2 1 2 2 3 3 2 2 2 2 1 1 1 2 2 2 2 2 2 2 2 3 4 4 3 2 1
1 1 1 0 0 0 0 0 0 1 1 1 1 1 2 2 2 2 2 1 1 1 1 1 2 2 2 2 2 2 2 2 2 3 3 3 2 2
1 1 1 1 1 0 0 0 1 1 1 1 1 1 1 1 1 1 1 1 1 1 1 1 1 2 2 2 2 2 2 2 3 3 3 2 2 2
1 1 1 1 1 1 0 0 0 1 1 1 1 1 1 1 1 1 1 1 1 1 1 1 1 1 2 2 1 1 2 2 3 3 3 3 2 2
1 1 1 1 1 1 1 1 0 1 1 1 1 2 1 1 1 1 1 1 1 1 1 1 1 1 1 1 1 1 1 2 3 4 4 4 3 2
1 1 1 1 1 1 1 1 1 1 1 1 2 2 2 1 1 1 1 1 1 1 1 1 1 1 1 1 1 1 1 1 2 3 4 4 3 3
2 2 2 1 1 1 2 2 2 1 2 2 2 2 2 2 1 1 1 1 1 1 1 1 1 1 1 1 1 1 1 1 1 2 2 2 2 3
3 3 2 2 2 2 3 4 3 2 2 2 3 3 3 2 2 1 1 1 1 1 1 1 1 2 1 1 1 1 1 1 1 1 1 1 1 1
Wind_Speed
4 5 5 3 4 4 4 4 4 3 2 4 3 3 2 2 4 4 3 5 5 4 4 4 4 4 4 4 4 3 4 4 5 5 4 4 4 4
4 4 4 4 3 3 4 4 4 4 3 1 2 2 2 2 3 3 2 6 6 5 5 5 5 5 5 5 4 4 4 5 5 5 5 5 5 4
4 4 5 5 3 3 3 4 4 4 4 2 2 2 3 3 3 3 4 5 5 7 6 5 5 5 5 5 5 5 5 5 5 6 6 6 6 5
4 4 4 3 4 4 3 4 3 3 4 3 2 2 3 4 3 4 4 4 4 7 8 7 6 6 5 6 6 6 5 5 5 6 6 6 6 6
4 4 4 4 4 3 4 4 3 3 3 3 3 1 2 2 3 4 5 3 4 5 8 8 7 7 6 6 6 6 6 6 6 6 6 6 6 6
4 4 4 4 4 4 4 4 4 4 3 4 3 3 3 3 3 4 4 4 4 4 4 5 7 8 8 8 7 7 7 7 7 7 7 7 6 6
4 4 4 2 2 3 4 3 4 4 4 4 4 3 3 3 3 4 4 4 4 4 4 4 5 6 7 9 10 9 8 7 7 6 6 6 6 6
4 4 4 4 3 4 4 4 4 5 5 4 4 3 3 3 3 4 3 4 4 3 4 4 4 4 5 5 6 9 9 8 8 7 7 6 6 7
4 4 4 2 4 4 5 7 6 6 6 6 5 4 3 3 4 5 4 4 4 2 4 5 4 5 5 3 7 8 9 9 8 8 7 7 7 7
5 5 4 4 3 3 4 5 5 5 6 6 5 5 4 3 4 5 5 5 5 4 4 5 4 5 4 3 8 8 9 9 9 8 8 8 8 8
5 5 5 5 2 3 5 5 5 4 4 5 4 4 4 4 4 5 5 5 5 3 4 5 4 4 4 4 6 10 10 10 10 9 9 8 7 8
4 5 4 4 3 3 5 5 5 4 4 4 5 6 7 6 6 7 6 6 5 3 2 4 4 4 4 3 3 5 7 9 10 10 10 8 7 6
4 4 3 6 5 5 6 5 3 4 5 5 5 5 5 5 6 6 6 6 5 4 2 3 4 4 4 4 3 3 4 4 5 7 9 9 8 7
4 3 0 4 4 5 5 3 3 5 6 5 5 5 4 4 4 4 5 6 5 5 4 4 5 4 5 5 4 3 3 3 3 4 4 7 8 9
3 2 1 2 4 6 8 6 6 6 5 5 5 5 4 4 3 3 5 5 6 6 5 5 6 5 6 6 5 4 3 3 4 4 4 4 4 5
3 2 5 6 6 5 4 6 6 5 5 5 5 5 4 4 4 4 4 4 5 5 5 5 6 6 6 6 5 4 4 4 3 3 3 4 4 4
3 3 3 3 4 4 4 4 5 5 5 5 5 5 4 4 4 4 4 4 5 5 4 4 5 5 6 6 5 5 4 4 4 3 3 4 4 4
4 4 4 4 4 4 4 4 4 4 4 4 5 5 5 5 5 5 5 5 5 5 5 4 4 4 5 5 5 6 5 4 4 4 4 5 4 4
5 4 4 4 4 4 4 4 4 4 4 4 4 5 5 5 5 5 5 5 6 5 5 4 4 5 6 6 5 6 5 4 4 4 4 5 5 4
5 4 4 4 4 5 4 4 4 3 4 4 4 4 5 5 5 5 5 6 6 5 5 5 5 5 6 6 4 4 6 6 5 5 4 4 3 2
4 4 4 4 5 4 4 4 4 4 4 4 5 5 5 5 5 5 5 5 6 6 6 5 3 4 6 5 6 4 3 4 4 4 5 5 5 5
4 4 4 4 5 5 4 4 4 4 4 5 5 5 5 5 6 7 6 6 5 6 6 5 4 5 5 6 7 5 4 3 3 4 5 5 5 5
4 4 4 4 5 5 5 5 5 4 4 4 4 5 5 5 5 6 6 6 5 6 6 5 5 5 6 6 6 5 5 5 4 4 4 6 8 8
Wind_Direction
233 231 246 253 246 251 259 265 272 268 223 181 197 178 204 194 151 207 196 166 190 212 220 220 220 223 222 224 225 210 195 190 193 198 204 209 204 204
243 246 251 257 254 250 250 254 258 271 272 202 191 171 178 205 178 220 207 165 193 212 221 223 221 220 222 219 219 215 207 202 204 205 203 205 207 208
244 241 244 257 256 255 250 250 249 257 258 247 194 151 182 230 184 215 205 212 195 194 209 216 218 219 223 219 218 218 216 213 210 206 204 207 212 214
246 246 247 241 242 253 253 253 251 257 258 247 226 192 200 213 210 226 219 223 223 177 195 207 214 218 219 222 221 222 223 222 220 216 213 211 211 215
250 250 249 245 247 244 247 248 246 240 246 243 231 209 215 218 218 227 225 231 238 182 190 203 212 217 220 224 225 225 225 225 224 224 222 221 216 216
251 253 251 248 246 245 240 245 250 250 242 246 232 212 211 208 229 228 219 211 235 215 202 205 201 208 217 219 220 220 220 220 221 223 224 223 220 219
254 254 248 259 292 276 270 251 247 250 244 243 237 226 221 213 229 238 240 231 221 233 222 216 205 214 208 212 215 216 215 214 216 220 223 225 224 223
248 249 236 221 215 223 249 262 270 257 259 258 248 238 233 233 244 252 249 247 239 218 243 241 231 230 228 222 191 194 204 210 214 218 222 223 223 223
246 247 249 225 235 232 215 217 227 238 254 269 268 264 247 240 251 248 251 261 268 246 248 248 236 242 240 205 167 186 202 210 215 218 220 223 223 221
243 244 247 244 247 259 248 235 230 219 225 237 258 264 264 253 245 258 260 248 244 238 239 257 247 246 247 216 172 188 199 207 214 217 218 220 222 224
237 235 242 243 193 255 249 246 244 240 217 227 258 275 305 292 272 254 247 249 249 230 219 253 261 257 243 231 187 188 197 204 209 213 217 220 225 228
235 226 221 239 199 229 246 247 247 254 260 227 226 233 238 228 225 245 253 257 259 251 197 247 259 264 255 237 221 198 203 205 210 211 212 215 217 231
256 241 202 172 197 223 248 250 254 268 261 251 241 235 229 225 218 222 242 256 263 260 232 236 257 259 265 265 248 235 232 215 204 209 209 207 206 224
270 270 190 152 200 226 236 245 253 257 253 250 248 244 237 233 225 224 231 246 259 267 276 265 268 269 267 265 263 250 242 243 239 232 221 189 201 215
281 341 355 214 232 229 223 227 233 240 247 248 248 246 246 245 241 225 223 227 235 240 239 247 257 264 265 265 266 262 256 252 249 249 238 221 215 210
259 219 205 220 238 255 232 215 228 240 249 251 252 250 246 239 237 237 239 233 237 231 217 227 247 257 257 260 262 262 260 258 255 251 254 246 231 226
300 268 256 238 232 230 233 230 228 226 233 244 249 250 245 240 238 235 241 246 245 245 231 217 224 234 254 267 264 260 256 254 253 245 239 248 241 233
267 257 255 257 255 253 248 238 234 240 246 251 250 249 248 247 243 235 233 241 246 247 241 231 232 233 238 235 238 255 258 261 260 247 248 249 247 238
236 250 256 261 265 262 259 256 250 244 246 250 252 253 248 248 248 244 239 242 245 247 247 239 235 242 249 252 229 226 255 264 264 258 257 259 258 249
242 248 253 258 263 265 263 262 260 253 245 246 247 250 249 248 251 249 244 245 247 248 248 241 238 244 257 271 274 248 227 249 256 258 260 263 265 263
246 248 253 261 263 263 263 260 257 255 254 252 248 248 249 248 248 251 248 240 249 253 253 251 249 245 261 264 260 253 239 215 261 269 269 266 263 253
250 251 253 260 262 263 261 258 252 247 243 245 250 249 247 250 249 247 249 245 243 251 257 257 243 240 248 253 257 257 255 241 209 229 254 263 268 269
256 255 252 251 254 257 256 256 257 256 252 251 254 256 257 253 255 251 248 250 252 256 260 260 255 250 253 255 259 262 256 251 246 241 240 221 222 239